Date String (YYYY-MM-DD hh:mm:ss) UTC,Instrument flags,absolute air pressure of the measurement (hPa),sample flow rate (lpm),inlet stack bypass flow (lpm),air temperature of the measurement (°C),ambient temperature measured by the external sensor (°C),aerosol sample conditioner tube jacket temperature (°C),OPC LED temperature (°C),internal box temperature (°C),relative humidity of the measurement (%),span deviation,mass concentration of particles derived from Lorenz-Mie calculation of OPC scattering (μg/m³),mass concentration of particles derived from Lorenz-Mie calculation of OPC scattering (μg/m³),mass concentration of particles derived from Lorenz-Mie calculation of OPC scattering (μg/m³)
DateTimeUTC,F1_M11,P_M11,Q1_M11,Q2_M11,T1_M11,T2_M11,T3_M11,T4_M11,T5_M11,U1_M11,ZSPAN_M11,X0_M11,X2_M11,X1_M11
2024-03-01 07:00:00,SystemResetWarning,0821.8,5.01,000.00,023.5,022.6,000.0,032.0,025.3,06.6,0000.0,0006.33,0002.91,0001.58
2024-03-01 07:01:00,SystemResetWarning,0821.8,5.00,000.00,023.5,022.6,000.0,032.0,025.3,06.6,0000.0,0006.22,0002.88,0001.59
2024-03-01 07:02:00,SystemResetWarning,0821.8,5.00,000.00,023.5,022.6,000.0,032.0,025.3,06.6,0000.0,0006.75,0002.86,0001.58
2024-03-01 07:03:00,SystemResetWarning,0821.7,4.99,000.00,023.5,022.6,000.0,032.0,025.3,06.5,0000.0,0007.78,0002.92,0001.59
2024-03-01 07:04:00,SystemResetWarning,0821.7,5.00,000.00,023.5,022.6,000.0,032.0,025.3,06.6,0000.0,0007.79,0002.93,0001.60
2024-03-01 07:05:00,SystemResetWarning,0821.8,5.00,000.00,023.5,022.6,000.0,032.0,025.3,06.6,0000.0,0007.83,0002.94,0001.62
2024-03-01 07:06:00,SystemResetWarning,0821.8,5.00,000.00,023.5,022.6,000.0,032.0,025.4,06.6,0000.0,0007.63,0002.97,0001.64
2024-03-01 07:07:00,SystemResetWarning,0821.8,5.00,000.00,023.5,022.6,000.0,032.0,025.3,06.6,0000.0,0007.53,0003.05,0001.65
2024-03-01 07:08:00,SystemResetWarning,0821.8,5.00,000.00,023.5,022.6,000.0,032.0,025.3,06.7,0000.0,0007.27,0002.98,0001.66
2024-03-01 07:09:00,SystemResetWarning,0821.7,5.00,000.00,023.5,022.6,000.0,032.0,025.3,06.7,0000.0,0007.26,0002.99,0001.68
2024-03-01 07:10:00,SystemResetWarning,0821.7,5.00,000.00,023.5,022.6,000.0,032.0,025.3,06.6,0000.0,0007.04,0002.91,0001.68
2024-03-01 07:11:00,SystemResetWarning,0821.5,5.00,000.00,023.5,022.6,000.0,032.0,025.3,06.6,0000.0,0007.13,0002.95,0001.68
2024-03-01 07:12:00,SystemResetWarning,0821.8,5.00,000.00,023.5,022.6,000.0,032.0,025.3,06.6,0000.0,0007.35,0002.98,0001.68
2024-03-01 07:13:00,SystemResetWarning,0821.7,5.00,000.00,023.5,022.6,000.0,032.0,025.3,06.6,0000.0,0007.33,0002.98,0001.68
2024-03-01 07:14:00,SystemResetWarning,0821.6,5.00,000.00,023.5,022.6,000.0,032.0,025.3,06.6,0000.0,0006.14,0002.89,0001.67
2024-03-01 07:15:00,SystemResetWarning,0821.7,5.00,000.00,023.5,022.6,000.0,032.0,025.3,06.7,0000.0,0006.06,0002.85,0001.67
2024-03-01 07:16:00,SystemResetWarning,0821.9,5.00,000.00,023.5,022.6,000.0,032.0,025.3,07.0,0000.0,0006.06,0002.85,0001.66
2024-03-01 07:17:00,SystemResetWarning,0822.0,5.00,000.00,023.5,022.6,000.0,032.0,025.3,06.9,0000.0,0006.24,0002.87,0001.66
2024-03-01 07:18:00,SystemResetWarning,0822.0,5.00,000.00,023.5,022.6,000.0,032.0,025.3,07.1,0000.0,0006.18,0002.79,0001.64
2024-03-01 07:19:00,SystemResetWarning,0822.1,5.00,000.00,023.5,022.6,000.0,032.0,025.2,07.2,0000.0,0007.18,0002.87,0001.65
2024-03-01 07:20:00,SystemResetWarning,0822.1,5.00,000.00,023.5,022.6,000.0,032.0,025.2,06.9,0000.0,0007.38,0002.86,0001.63
2024-03-01 07:21:00,SystemResetWarning,0822.1,5.00,000.00,023.5,022.6,000.0,032.0,025.2,06.9,0000.0,0007.45,0002.89,0001.63
2024-03-01 07:22:00,SystemResetWarning,0822.1,5.00,000.00,023.5,022.6,000.0,032.0,025.3,06.9,0000.0,0007.50,0002.92,0001.64
2024-03-01 07:23:00,SystemResetWarning,0822.1,5.00,000.00,023.5,022.6,000.0,032.0,025.2,06.8,0000.0,0007.56,0002.92,0001.63
2024-03-01 07:24:00,SystemResetWarning,0822.0,5.00,000.00,023.5,022.5,000.0,032.0,025.2,06.8,0000.0,0007.65,0002.85,0001.63
2024-03-01 07:25:00,SystemResetWarning,0821.9,5.00,000.00,023.5,022.6,000.0,031.9,025.2,06.7,0000.0,0007.60,0002.84,0001.63
2024-03-01 07:26:00,SystemResetWarning,0822.1,5.00,000.00,023.5,022.6,000.0,031.9,025.2,06.7,0000.0,0007.63,0002.83,0001.64
2024-03-01 07:27:00,SystemResetWarning,0822.0,5.00,000.00,023.5,022.6,000.0,031.9,025.2,06.7,0000.0,0007.48,0002.77,0001.63
2024-03-01 07:28:00,SystemResetWarning,0822.0,5.00,000.00,023.5,022.6,000.0,031.9,025.2,06.8,0000.0,0007.41,0002.76,0001.62
2024-03-01 07:29:00,SystemResetWarning,0822.1,5.00,000.00,023.5,022.6,000.0,031.9,025.2,06.7,0000.0,0007.54,0002.87,0001.62
2024-03-01 07:30:00,SystemResetWarning,0822.2,5.00,000.00,023.5,022.6,000.0,031.9,025.2,06.7,0000.0,0007.00,0002.90,0001.62
2024-03-01 07:31:00,SystemResetWarning,0822.1,5.00,000.00,023.5,022.6,000.0,031.9,025.2,06.7,0000.0,0006.54,0002.84,0001.61
2024-03-01 07:32:00,SystemResetWarning,0822.0,5.00,000.00,023.5,022.5,000.0,031.9,025.2,06.7,0000.0,0006.41,0002.81,0001.61
2024-03-01 07:33:00,SystemResetWarning,0822.1,5.01,000.00,023.5,022.5,000.0,031.9,025.2,06.7,0000.0,0006.90,0002.79,0001.60
2024-03-01 07:34:00,SystemResetWarning,0822.2,4.98,000.00,023.5,022.6,000.0,031.9,025.2,06.8,0000.0,0007.32,0002.77,0001.60
2024-03-01 07:35:00,SystemResetWarning,0822.3,5.00,000.00,023.5,022.6,000.0,031.9,025.2,07.0,0000.0,0006.67,0002.85,0001.60
2024-03-01 07:36:00,SystemResetWarning,0822.2,5.00,000.00,023.5,022.5,000.0,031.9,025.2,06.9,0000.0,0006.71,0002.94,0001.60
2024-03-01 07:37:00,SystemResetWarning,0822.2,5.00,000.00,023.4,022.5,000.0,031.9,025.2,06.9,0000.0,0006.68,0002.98,0001.60
2024-03-01 07:38:00,SystemResetWarning,0822.1,5.00,000.00,023.4,022.5,000.0,031.9,025.1,06.9,0000.0,0006.82,0003.00,0001.61
2024-03-01 07:39:00,SystemResetWarning,0822.1,4.99,000.00,023.4,022.5,000.0,031.9,025.2,06.9,0000.0,0006.85,0002.98,0001.62
2024-03-01 07:40:00,SystemResetWarning,0821.9,5.00,000.00,023.4,022.5,000.0,031.9,025.2,07.2,0000.0,0006.74,0002.91,0001.61
2024-03-01 07:41:00,SystemResetWarning,0822.0,5.00,000.00,023.4,022.5,000.0,031.8,025.1,07.4,0000.0,0006.63,0002.84,0001.60
2024-03-01 07:42:00,SystemResetWarning,0822.0,5.00,000.00,023.4,022.5,000.0,031.8,025.1,07.3,0000.0,0006.85,0002.90,0001.60
2024-03-01 07:43:00,SystemResetWarning,0822.0,5.00,000.00,023.4,022.4,000.0,031.8,025.1,07.5,0000.0,0007.35,0002.90,0001.61
2024-03-01 07:44:00,SystemResetWarning,0822.0,5.00,000.00,023.3,022.4,000.0,031.8,025.1,07.7,0000.0,0006.77,0002.88,0001.61
2024-03-01 07:45:00,SystemResetWarning,0821.9,5.00,000.00,023.3,022.4,000.0,031.8,025.0,07.9,0000.0,0006.40,0002.88,0001.60
2024-03-01 07:46:00,SystemResetWarning,0821.8,5.01,000.00,023.3,022.3,000.0,031.8,025.0,07.9,0000.0,0006.06,0002.79,0001.59
2024-03-01 07:47:00,SystemResetWarning,0821.8,5.00,000.00,023.3,022.3,000.0,031.8,025.0,07.9,0000.0,0005.80,0002.71,0001.59
2024-03-01 07:48:00,SystemResetWarning,0821.9,5.00,000.00,023.3,022.2,000.0,031.7,025.0,07.9,0000.0,0005.72,0002.69,0001.59
2024-03-01 07:49:00,SystemResetWarning,0821.9,5.00,000.00,023.2,022.2,000.0,031.7,025.0,08.0,0000.0,0005.70,0002.67,0001.60
2024-03-01 07:50:00,SystemResetWarning,0821.7,4.99,000.00,023.2,022.2,000.0,031.7,024.9,07.9,0000.0,0005.67,0002.71,0001.62
2024-03-01 07:51:00,SystemResetWarning,0821.7,5.00,000.00,023.2,022.2,000.0,031.7,025.0,07.9,0000.0,0005.54,0002.69,0001.62
2024-03-01 07:52:00,SystemResetWarning,0821.7,4.99,000.00,023.2,022.1,000.0,031.7,024.9,07.9,0000.0,0006.19,0002.73,0001.63
2024-03-01 07:53:00,SystemResetWarning,0821.7,5.00,000.00,023.2,022.1,000.0,031.7,024.9,07.9,0000.0,0006.77,0002.77,0001.64
2024-03-01 07:54:00,SystemResetWarning,0821.7,5.00,000.00,023.1,022.1,000.0,031.6,024.9,07.9,0000.0,0006.67,0002.88,0001.65
2024-03-01 07:55:00,SystemResetWarning,0821.7,5.00,000.00,023.1,022.1,000.0,031.6,024.8,07.9,0000.0,0007.01,0002.98,0001.69
2024-03-01 07:56:00,SystemResetWarning,0821.8,5.00,000.00,023.1,022.0,000.0,031.6,024.8,08.0,0000.0,0006.98,0003.02,0001.71
2024-03-01 07:57:00,SystemResetWarning,0821.7,5.00,000.00,023.1,022.0,000.0,031.6,024.8,08.0,0000.0,0007.36,0003.15,0001.76
2024-03-01 07:58:00,SystemResetWarning,0821.8,5.01,000.00,023.0,022.0,000.0,031.5,024.8,08.0,0000.0,0008.05,0003.23,0001.82
2024-03-01 07:59:00,SystemResetWarning,0821.8,5.00,000.00,023.0,022.0,000.0,031.5,024.7,08.1,0000.0,0008.56,0003.32,0001.90
